Date String (YYYY-MM-DD hh:mm:ss) UTC,Instrument flags,Ambient pressure (hPa),Sample flow (lpm),Bypass flow (lpm),Sample temperature (°C),Ambient temperature (°C),ASC tube jacket temperature (°C),LED temperature (°C),Box temperature (°C),Sample RH (%),Span deviation,Mass concentration (μg/m³),Mass concentration (μg/m³),Mass concentration (μg/m³)
DateTimeUTC,F1_M11,P_M11,Q1_M11,Q2_M11,T1_M11,T2_M11,T3_M11,T4_M11,T5_M11,U1_M11,ZSPAN_M11,X0_M11,X2_M11,X1_M11
2022-12-18 20:00:00,,0818.9,5.03,0.00,23.3,22.0,00.0,32.0,25.0,06.2,0000.0,0009.37,0003.24,0002.60
2022-12-18 20:01:00,,0818.9,4.97,0.00,23.3,22.0,00.0,32.0,25.0,06.3,0000.0,0008.45,0003.26,0002.61
2022-12-18 20:02:00,,0818.8,5.03,0.00,23.3,22.0,00.0,32.0,25.0,06.3,0000.0,0008.52,0003.30,0002.61
2022-12-18 20:03:00,,0818.8,4.98,0.00,23.3,22.0,00.0,32.0,25.1,06.2,0000.0,0009.10,0003.27,0002.62
2022-12-18 20:04:00,,0818.8,4.97,0.00,23.3,22.0,00.0,32.0,25.1,06.2,0000.0,0008.84,0003.27,0002.65
2022-12-18 20:05:00,,0818.8,5.05,0.00,23.3,22.0,00.0,32.0,25.1,06.2,0000.0,0008.66,0003.27,0002.65
2022-12-18 20:06:00,,0818.8,4.98,0.00,23.3,22.0,00.0,32.1,25.0,06.2,0000.0,0008.34,0003.27,0002.66
2022-12-18 20:07:00,,0818.8,4.99,0.00,23.3,22.0,00.0,32.1,25.1,06.3,0000.0,0008.38,0003.28,0002.69
2022-12-18 20:08:00,,0818.8,5.01,0.00,23.3,22.0,00.0,32.1,25.1,06.3,0000.0,0008.48,0003.31,0002.72
2022-12-18 20:09:00,,0818.8,5.02,0.00,23.3,22.0,00.0,32.1,25.1,06.4,0000.0,0008.47,0003.37,0002.76
2022-12-18 20:10:00,,0818.8,4.96,0.00,23.3,22.1,00.0,32.1,25.1,06.2,0000.0,0008.90,0003.43,0002.79
2022-12-18 20:11:00,,0818.9,5.04,0.00,23.3,22.0,00.0,32.1,25.1,06.1,0000.0,0009.41,0003.48,0002.83
2022-12-18 20:12:00,,0818.9,4.96,0.00,23.3,22.0,00.0,32.1,25.1,06.1,0000.0,0009.45,0003.50,0002.86
2022-12-18 20:13:00,,0819.0,5.05,0.00,23.3,22.0,00.0,32.1,25.1,06.1,0000.0,0009.27,0003.47,0002.88
2022-12-18 20:14:00,,0818.9,4.96,0.00,23.3,22.0,00.0,32.1,25.1,06.2,0000.0,0008.10,0003.48,0002.90
2022-12-18 20:15:00,,0818.9,5.05,0.00,23.3,22.0,00.0,32.1,25.1,06.3,0000.0,0008.03,0003.52,0002.93
2022-12-18 20:16:00,,0818.9,4.95,0.00,23.3,22.1,00.0,32.1,25.1,06.2,0000.0,0008.09,0003.56,0002.95
2022-12-18 20:17:00,,0818.9,5.04,0.00,23.3,22.0,00.0,32.1,25.2,06.2,0000.0,0008.35,0003.59,0002.97
2022-12-18 20:18:00,,0819.0,4.95,0.00,23.3,22.0,00.0,32.1,25.1,06.3,0000.0,0008.55,0003.62,0002.99
2022-12-18 20:19:00,,0819.0,5.03,0.00,23.3,22.0,00.0,32.1,25.1,06.5,0000.0,0008.93,0003.65,0003.05
2022-12-18 20:20:00,,0818.9,4.97,0.00,23.3,22.0,00.0,32.1,25.1,06.6,0000.0,0008.67,0003.64,0003.09
2022-12-18 20:21:00,,0818.9,5.02,0.00,23.3,22.1,00.0,32.1,25.1,06.5,0000.0,0008.08,0003.65,0003.12
2022-12-18 20:22:00,,0818.9,4.99,0.00,23.3,22.1,00.0,32.1,25.1,06.5,0000.0,0007.91,0003.68,0003.16
2022-12-18 20:23:00,,0819.0,5.01,0.00,23.4,22.1,00.0,32.1,25.1,06.5,0000.0,0008.78,0003.72,0003.19
2022-12-18 20:24:00,,0819.0,5.01,0.00,23.4,22.1,00.0,32.2,25.1,06.5,0000.0,0009.49,0003.74,0003.21
2022-12-18 20:25:00,,0819.0,4.98,0.00,23.4,22.1,00.0,32.2,25.1,06.5,0000.0,0009.69,0003.76,0003.24
2022-12-18 20:26:00,,0819.0,4.99,0.00,23.4,22.1,00.0,32.2,25.2,06.5,0000.0,0009.71,0003.76,0003.26
2022-12-18 20:27:00,,0819.1,5.04,0.00,23.4,22.1,00.0,32.2,25.2,06.5,0000.0,0009.69,0003.78,0003.28
2022-12-18 20:28:00,,0819.1,4.98,0.00,23.4,22.1,00.0,32.2,25.2,06.6,0000.0,0009.68,0003.82,0003.30
2022-12-18 20:29:00,,0819.1,4.98,0.00,23.4,22.0,00.0,32.2,25.2,06.5,0000.0,0010.48,0003.88,0003.33
2022-12-18 20:30:00,,0819.1,5.03,0.00,23.4,22.0,00.0,32.2,25.2,06.5,0000.0,0010.77,0003.87,0003.33
2022-12-18 20:31:00,,0819.1,4.99,0.00,23.3,21.8,00.0,32.2,25.1,06.6,0000.0,0011.40,0003.88,0003.31
2022-12-18 20:32:00,,0819.1,4.98,0.00,23.3,21.8,00.0,32.2,25.1,06.6,0000.0,0012.42,0003.88,0003.32
2022-12-18 20:33:00,,0819.1,5.00,0.00,23.3,21.8,00.0,32.2,25.1,06.5,0000.0,0012.22,0003.85,0003.29
2022-12-18 20:34:00,,0819.1,5.02,0.00,23.3,21.8,00.0,32.2,25.1,06.7,0000.0,0011.88,0003.83,0003.27
2022-12-18 20:35:00,,0819.0,4.97,0.00,23.3,21.7,00.0,32.2,25.0,06.9,0000.0,0011.30,0003.85,0003.27
2022-12-18 20:36:00,,0819.1,5.04,0.00,23.2,21.6,00.0,32.1,25.0,06.9,0000.0,0011.80,0003.90,0003.26
2022-12-18 20:37:00,,0819.1,4.97,0.00,23.2,21.6,00.0,32.1,24.9,06.8,0000.0,0012.29,0003.92,0003.25
2022-12-18 20:38:00,,0819.1,5.02,0.00,23.2,21.5,00.0,32.1,24.9,06.8,0000.0,0012.49,0003.93,0003.24
2022-12-18 20:39:00,,0819.1,4.98,0.00,23.1,21.5,00.0,32.1,24.9,06.9,0000.0,0012.45,0003.91,0003.23
2022-12-18 20:40:00,,0819.1,5.01,0.00,23.1,21.4,00.0,32.1,24.8,06.8,0000.0,0012.11,0003.86,0003.21
2022-12-18 20:41:00,,0819.1,4.98,0.00,23.1,21.5,00.0,32.1,24.8,06.8,0000.0,0011.46,0003.86,0003.20
2022-12-18 20:42:00,,0819.1,4.97,0.00,23.1,21.5,00.0,32.0,24.9,06.8,0000.0,0011.37,0003.87,0003.20
2022-12-18 20:43:00,,0819.1,5.05,0.00,23.1,21.5,00.0,32.0,24.9,06.8,0000.0,0010.01,0003.86,0003.19
2022-12-18 20:44:00,,0819.1,4.97,0.00,23.0,21.4,00.0,32.0,24.8,06.8,0000.0,0010.06,0003.86,0003.19
2022-12-18 20:45:00,,0819.1,5.04,0.00,23.0,21.4,00.0,32.0,24.8,06.8,0000.0,0010.99,0003.89,0003.20
2022-12-18 20:46:00,,0819.1,4.97,0.00,23.0,21.3,00.0,32.0,24.8,06.8,0000.0,0010.81,0003.88,0003.20
2022-12-18 20:47:00,,0819.1,5.03,0.00,23.0,21.2,00.0,32.0,24.8,06.8,0000.0,0010.28,0003.86,0003.20
2022-12-18 20:48:00,,0819.1,4.97,0.00,22.9,21.2,00.0,31.9,24.7,06.7,0000.0,0009.76,0003.86,0003.20
2022-12-18 20:49:00,,0819.1,4.98,0.00,22.9,21.2,00.0,31.9,24.7,06.8,0000.0,0009.55,0003.85,0003.20
2022-12-18 20:50:00,,0819.0,5.01,0.00,22.9,21.2,00.0,31.9,24.7,06.7,0000.0,0009.60,0003.84,0003.20
2022-12-18 20:51:00,,0819.0,4.97,0.00,22.9,21.2,00.0,31.9,24.7,06.7,0000.0,0009.83,0003.83,0003.20
2022-12-18 20:52:00,,0819.0,5.05,0.00,22.9,21.2,00.0,31.9,24.6,06.7,0000.0,0009.81,0003.81,0003.20
2022-12-18 20:53:00,,0819.0,4.97,0.00,22.8,21.2,00.0,31.9,24.6,06.8,0000.0,0009.68,0003.79,0003.19
2022-12-18 20:54:00,,0819.0,5.03,0.00,22.8,21.1,00.0,31.8,24.6,06.7,0000.0,0010.07,0003.77,0003.18
2022-12-18 20:55:00,,0819.0,4.98,0.00,22.8,21.1,00.0,31.8,24.6,06.7,0000.0,0010.57,0003.74,0003.18
2022-12-18 20:56:00,,0819.0,4.99,0.00,22.8,21.1,00.0,31.8,24.6,06.7,0000.0,0009.45,0003.72,0003.18
2022-12-18 20:57:00,,0819.0,5.02,0.00,22.8,21.1,00.0,31.8,24.5,06.8,0000.0,0009.45,0003.74,0003.17
2022-12-18 20:58:00,,0819.0,4.97,0.00,22.8,21.0,00.0,31.8,24.5,06.8,0000.0,0009.86,0003.77,0003.17
2022-12-18 20:59:00,,0819.0,5.05,0.00,22.7,21.0,00.0,31.7,24.5,06.7,0000.0,0009.92,0003.77,0003.17
